Showing default

UVSQ-SAT NG, 63251

Orbit data source: Space-Track

UVSQ-SAT NG, 63251 is a payload satellite owned by LATMOS (FR) in SSO that was launched on Sat, 15 Mar 2025 UTC via an FALCON 9 launch vehicle from the Air Force Western Test Range (AFWTR). Payload-class satellites include a variety of spacecraft equipped with specific instruments for various scientific and technological missions. These include communications satellites like Starlink; space stations such as the ISS; scientific satellites like the Hubble; Earth observation satellites from companies like Planet Labs, Umbra, and HawkEye 360; GPS; miniature CubeSats for education and research; and military/defense satellites.

Loading next visibility...
Identifier
63251, 2025-052AT
Orbit
SSO
Country
Flag of FRFR
Related business
Manufacturer
LATMOS
Mission
Operational Civil Earth Obs Sci
Bus & Motor
CUBESAT 6U, Unknown motor
Mass
12 kg wet, 12 kg dry
Launch date (UTC)
2025-03-15 (1 year ago)
Launch vehicle
FALCON 9
Launch site
Air Force Western Test Range (AFWTR)
Object type
Payload
Rocket body
Debris
Shape & HBR
Box + 2 Pan, 1.0 m
Radar Cross Section
0.098 m², Medium (>0.1 m² and < 1m²)

Expand to show TLE details & history
Last TLE update: 12 hours ago

TLE from 12 hours ago
0 UVSQ-SAT NG
1 63251U 25052AT  26166.65448579  .00002638  00000-0  24401-3 0  9993
2 63251  97.6861  58.1433 0001776 191.7975 168.3205 14.95387465 68405
Epoch: 2026-06-15T15:42Z
TLE epoch observation values (Epoch: 2026-06-15T15:42:27.572Z)
Latitude
0.00003°
Longitude
-81.40935°
Altitude
585.43 km
Speed
7.567 km/s
True Right ascension
03h 52m 34s
True Declination
0° 00' 00"
Sunlit
Object was in daylight at epoch
Visualization orbit readout
Latitude
Unknown
Longitude
Unknown
Altitude
Unknown
Speed
Unknown
Apparent Right ascension
Unknown
Apparent Declination
Unknown
Sunlit
N/A
Visualization observer readout
Local Sidereal Time
14:49:19
Azimuth
Unknown
Elevation
Unknown
Doppler factor
Unknown
Orbital elements
Apogee altitude
579.417 km
Perigee altitude
576.946 km
Semi-major axis
6,956.318 km
Eccentricity
0.00018
Inclination
97.6861°
RAAN
58.1433°
Arg. of periapsis
191.7975°
True anomaly
168.32462°
Mean anomaly
168.3205°
Eccentric anomaly
168.32256°
Mean motion
3.74088 °/min
Orbital period
96.23 mins
BSTAR
0.00024401
Loading maneuver chart data...
Computing Atmospheric mass density...
Loading historical data...
Loading historical data...
Loading historical data...
Loading historical data...
Loading historical data...
Loading historical data...
Loading historical data...

Documentation

Showing up to 5 results
|